FENGYUN 1C DEB, 31877

Orbit data source: Space-Track

FENGYUN 1C DEB, 31877 is space debris in SSO originally from a launch on Mon, 10 May 1999 UTC launched from the Taiyaun Space Center, China (TSC). Fengyun 1C debris stems from the Chinese weather satellite Fengyun-1C, which was intentionally destroyed by a Chinese anti-satellite missile in 2007. This event dramatically increased the amount of space debris, with thousands of trackable fragments posing hazards to satellites and human spaceflight. The Fengyun 1C debris cloud has become a focal point in discussions about space sustainability and the need for international regulations to prevent the creation of new debris.

Loading next visibility...
Identifier
31877, 1999-025CKC
Orbit
SSO
Country
Flag of CNCN / PRC
Related business
Manufacturer
Unknown
Mission
Spacecraft
Bus & Motor
Unknown
Mass
Unknown
Launch date (UTC)
1999-05-10 (27 years ago)
Launch vehicle
Unknown
Launch site
Taiyaun Space Center, China (TSC)
Object type
Payload
Rocket body
Debris
Shape & HBR
Unknown shape, 0.1 m
Radar Cross Section
Small (<0.1 m²)

Expand to show TLE details & history
Last TLE update: 21 hours ago

TLE from 21 hours ago
0 FENGYUN 1C DEB
1 31877U 99025CKC 26145.22196791  .00015147  00000-0  93361-3 0  9999
2 31877  98.9925 246.9848 0096420 104.9452 256.2471 15.06216157 14980
Epoch: 2026-05-25T05:19Z
TLE epoch observation values (Epoch: 2026-05-25T05:19:38.027Z)
Latitude
0.00008°
Longitude
-75.73652°
Altitude
567.282 km
Speed
7.568 km/s
True Right ascension
16h 27m 56s
True Declination
0° 00' 00"
Sunlit
Object was in full shadow at epoch
Visualization orbit readout
Latitude
Unknown
Longitude
Unknown
Altitude
Unknown
Speed
Unknown
Apparent Right ascension
Unknown
Apparent Declination
Unknown
Sunlit
N/A
Visualization observer readout
Local Sidereal Time
11:17:59
Azimuth
Unknown
Elevation
Unknown
Doppler factor
Unknown
Orbital elements
Apogee altitude
611.585 km
Perigee altitude
478.082 km
Semi-major axis
6,922.97 km
Eccentricity
0.00964
Inclination
98.9925°
RAAN
246.9848°
Arg. of periapsis
104.9452°
True anomaly
255.17701°
Mean anomaly
256.2471°
Eccentric anomaly
255.71174°
Mean motion
3.76794 °/min
Orbital period
95.54 mins
BSTAR
0.00093361
Loading maneuver chart data...
Computing Atmospheric mass density...

Documentation

Showing up to 5 results
|